TimeCST,TemperatureF,Dew PointF,Humidity,Sea Level PressureIn,VisibilityMPH,Wind Direction,Wind SpeedMPH,Gust SpeedMPH,PrecipitationIn,Events,Conditions,WindDirDegrees,DateUTC
12:15 AM,26.6,21.9,82,30.09,10.0,North,8.1,-,N/A,,Overcast,10,2013-03-01 06:15:00
12:35 AM,26.2,21.4,82,30.09,10.0,NNE,15.0,-,N/A,,Overcast,20,2013-03-01 06:35:00
1:15 AM,25.7,19.9,79,30.09,10.0,North,12.7,-,N/A,,Overcast,360,2013-03-01 07:15:00
1:35 AM,25.3,20.1,81,30.09,10.0,North,11.5,-,N/A,,Overcast,10,2013-03-01 07:35:00
1:55 AM,25.3,19.9,80,30.09,10.0,North,10.4,-,N/A,,Overcast,360,2013-03-01 07:55:00
3:35 AM,24.6,20.3,84,30.08,10.0,North,12.7,-,N/A,,Freezing Rain,360,2013-03-01 09:35:00
4:15 AM,24.6,21.2,87,30.08,10.0,North,11.5,-,N/A,,Freezing Rain,360,2013-03-01 10:15:00
4:35 AM,24.3,21.2,88,30.09,10.0,North,10.4,-,N/A,,Freezing Rain,360,2013-03-01 10:35:00
4:55 AM,24.4,21.2,87,30.09,10.0,North,12.7,-,N/A,,Overcast,360,2013-03-01 10:55:00
5:15 AM,24.3,21.2,88,30.09,10.0,North,13.8,-,N/A,,Overcast,360,2013-03-01 11:15:00
5:35 AM,24.3,21.2,88,30.10,10.0,North,13.8,-,N/A,,Overcast,360,2013-03-01 11:35:00
6:15 AM,24.3,21.0,87,30.11,10.0,North,11.5,-,N/A,Snow,Light Snow,360,2013-03-01 12:15:00
6:35 AM,23.9,21.0,89,30.11,10.0,North,12.7,-,N/A,,Overcast,360,2013-03-01 12:35:00
6:55 AM,23.9,21.0,89,30.12,7.0,North,15.0,-,N/A,,Overcast,10,2013-03-01 12:55:00
7:15 AM,24.3,20.8,87,30.12,5.0,North,13.8,-,N/A,,Overcast,10,2013-03-01 13:15:00
7:35 AM,24.3,20.8,87,30.13,4.0,North,13.8,-,N/A,Snow,Light Snow,360,2013-03-01 13:35:00
7:55 AM,23.9,20.8,88,30.13,4.0,NNE,15.0,-,N/A,Snow,Light Snow,20,2013-03-01 13:55:00
8:15 AM,24.3,21.0,87,30.14,3.0,North,15.0,20.7,N/A,Snow,Light Snow,360,2013-03-01 14:15:00
8:35 AM,24.4,21.2,87,30.14,5.0,North,12.7,-,N/A,Snow,Light Snow,360,2013-03-01 14:35:00
8:55 AM,24.8,21.2,86,30.14,10.0,North,15.0,-,N/A,Snow,Light Snow,10,2013-03-01 14:55:00
9:15 AM,25.2,21.2,85,30.14,10.0,North,12.7,19.6,N/A,,Overcast,360,2013-03-01 15:15:00
9:35 AM,25.2,21.2,85,30.15,4.0,North,16.1,-,N/A,Snow,Light Snow,360,2013-03-01 15:35:00
9:55 AM,24.8,21.4,87,30.16,3.0,North,16.1,-,N/A,Snow,Light Snow,360,2013-03-01 15:55:00
10:15 AM,25.3,21.7,86,30.16,5.0,North,13.8,-,N/A,Snow,Light Snow,360,2013-03-01 16:15:00
10:35 AM,25.7,21.7,85,30.16,4.0,North,17.3,-,N/A,Snow,Light Snow,10,2013-03-01 16:35:00
11:15 AM,25.7,21.2,83,30.16,7.0,North,16.1,21.9,N/A,,Overcast,10,2013-03-01 17:15:00
11:35 AM,26.1,21.6,83,30.17,5.0,North,15.0,-,N/A,Snow,Light Snow,360,2013-03-01 17:35:00
11:55 AM,25.7,21.6,84,30.16,4.0,North,19.6,-,N/A,,Overcast,10,2013-03-01 17:55:00
12:15 PM,25.3,21.7,86,30.16,4.0,North,17.3,-,N/A,Rain,Freezing Rain,10,2013-03-01 18:15:00
12:35 PM,24.8,22.1,89,30.16,3.0,NNE,17.3,-,N/A,Rain,Freezing Rain,20,2013-03-01 18:35:00
12:55 PM,24.8,22.5,91,30.16,3.0,North,16.1,-,N/A,Rain,Freezing Rain,10,2013-03-01 18:55:00
1:15 PM,24.8,22.5,91,30.16,4.0,North,15.0,-,N/A,Rain,Freezing Rain,10,2013-03-01 19:15:00
1:35 PM,24.8,22.3,90,30.15,2.5,NNE,16.1,19.6,N/A,,Freezing Rain,20,2013-03-01 19:35:00
1:55 PM,24.8,22.1,89,30.16,4.0,North,15.0,20.7,N/A,Rain,Freezing Rain,10,2013-03-01 19:55:00
2:15 PM,24.8,21.9,89,30.16,4.0,NNE,17.3,-,N/A,Rain,Freezing Rain,20,2013-03-01 20:15:00
2:35 PM,24.6,21.6,88,30.16,4.0,NNE,15.0,-,N/A,Rain,Freezing Rain,20,2013-03-01 20:35:00
2:55 PM,24.4,21.2,87,30.16,4.0,NNE,20.7,-,N/A,,Overcast,20,2013-03-01 20:55:00
3:15 PM,24.1,20.7,87,30.17,5.0,NNE,17.3,23.0,N/A,,Overcast,20,2013-03-01 21:15:00
3:35 PM,24.3,20.3,85,30.17,10.0,North,13.8,-,N/A,,Overcast,10,2013-03-01 21:35:00
3:55 PM,24.3,19.9,84,30.18,10.0,NNE,19.6,-,N/A,,Overcast,20,2013-03-01 21:55:00
4:15 PM,24.4,19.9,83,30.18,10.0,North,11.5,-,N/A,,Overcast,10,2013-03-01 22:15:00
4:35 PM,24.3,18.9,80,30.19,10.0,North,15.0,-,N/A,,Overcast,10,2013-03-01 22:35:00
4:55 PM,24.3,19.0,80,30.19,10.0,North,16.1,-,N/A,,Overcast,10,2013-03-01 22:55:00
5:15 PM,24.3,19.2,81,30.19,10.0,North,12.7,-,N/A,,Overcast,360,2013-03-01 23:15:00
5:35 PM,24.4,19.0,80,30.19,10.0,North,13.8,-,N/A,,Overcast,360,2013-03-01 23:35:00
5:55 PM,24.3,19.2,81,30.20,10.0,North,13.8,19.6,N/A,,Overcast,360,2013-03-01 23:55:00
6:15 PM,24.3,19.2,81,30.21,10.0,North,11.5,-,N/A,,Overcast,360,2013-03-02 00:15:00
6:35 PM,24.3,19.2,81,30.21,10.0,North,16.1,-,N/A,,Overcast,360,2013-03-02 00:35:00
6:55 PM,23.9,19.2,82,30.21,10.0,North,11.5,-,N/A,,Overcast,360,2013-03-02 00:55:00
7:15 PM,23.9,19.4,83,30.21,10.0,North,12.7,-,N/A,,Overcast,360,2013-03-02 01:15:00
7:35 PM,23.9,19.2,82,30.21,10.0,North,13.8,-,N/A,,Overcast,360,2013-03-02 01:35:00
7:55 PM,23.9,19.0,82,30.21,10.0,North,11.5,-,N/A,,Overcast,360,2013-03-02 01:55:00
8:15 PM,23.9,18.3,79,30.21,10.0,North,13.8,-,N/A,,Overcast,350,2013-03-02 02:15:00
8:35 PM,23.9,18.5,80,30.22,10.0,North,15.0,-,N/A,,Overcast,350,2013-03-02 02:35:00
8:55 PM,24.3,18.7,79,30.22,10.0,North,15.0,-,N/A,,Overcast,350,2013-03-02 02:55:00
9:15 PM,24.8,18.3,76,30.21,10.0,North,13.8,19.6,N/A,,Overcast,360,2013-03-02 03:15:00
9:55 PM,24.4,18.3,78,30.21,10.0,North,16.1,-,N/A,,Overcast,350,2013-03-02 03:55:00
10:15 PM,23.9,17.6,77,30.21,10.0,North,15.0,-,N/A,,Overcast,350,2013-03-02 04:15:00
10:35 PM,23.9,17.4,76,30.20,10.0,NNW,15.0,-,N/A,,Overcast,340,2013-03-02 04:35:00
10:55 PM,23.2,16.9,77,30.21,10.0,NNW,12.7,-,N/A,,Overcast,330,2013-03-02 04:55:00
11:15 PM,22.5,16.7,79,30.20,10.0,NNW,11.5,-,N/A,,Overcast,340,2013-03-02 05:15:00
11:35 PM,22.3,16.7,79,30.20,10.0,NNW,10.4,-,N/A,,Overcast,340,2013-03-02 05:35:00
11:55 PM,22.6,16.7,78,30.19,10.0,NNW,12.7,-,N/A,,Overcast,340,2013-03-02 05:55:00